Augusta Bush, GA

10:55 AM EDT on September 21, 2017 (GMT -0400)
Augusta Regional At Bush

Weather History for KAGS - December, 2013

Change the Weather History Date:

Thursday, December 26, 2013

  Actual Average Record
Temperature  
Mean Temperature 43 °F 45 °F  
Max Temperature 53 °F 58 °F 80 °F (1964)
Min Temperature 32 °F 33 °F 9 °F (1983)
Degree Days  
Heating Degree Days 22 20  
Month to date heating degree days 363 455  
Since 1 July heating degree days 822 877  
Cooling Degree Days 0 0  
Month to date cooling degree days 11 0  
Year to date cooling degree days 1876 2086  
Moisture  
Dew Point 32 °F    
Average Humidity 71    
Maximum Humidity 100    
Minimum Humidity 41    
Precipitation  
Precipitation T in 0.12 in 1.45 in (1881)
Month to date precipitation 4.61 2.83  
Year to date precipitation 53.23 43.01  
Sea Level Pressure  
Sea Level Pressure 30.33 in    
Wind  
Wind Speed 3 mph (North)    
Max Wind Speed 15 mph    
Max Gust Speed 17 mph    
Visibility 10 miles    
Events Rain    
T = Trace of Precipitation, MM = Missing Value Source: NWS Daily Summary

Daily Weather History Graph

Daily Weather History Graph

Search for Another Location

Airport or City:

Trip Planner

Search our weather history database for the weather conditions in past years. The results will help you decide how hot, cold, wet, or windy it might be!

Date:

Astronomy

Dec. 26, 2013 Rise Set
Actual Time 7:30 AM EST 5:27 PM EST
Civil Twilight 7:02 AM EST 5:54 PM EST
Nautical Twilight 6:31 AM EST 6:25 PM EST
Astronomical Twilight 6:01 AM EST 6:56 PM EST
Moon 1:10 AM EST (12/26) 12:50 PM EST (12/26)
Length of Visible Light 10h 52m
Length of Day
9h 57m
Last Quarter, 38% of the Moon is Illuminated
Dec 26
Last Quarter
Jan 1
New
Jan 7
First Quarter
Jan 15
Full
Jan 24
Last Quarter

Hourly Weather History & Observations

Time (EST) Temp. Windchill Dew Point Humidity Pressure Visibility Wind Dir Wind Speed Gust Speed Precip Events Conditions
12:53 AM 43.0 °F 39.5 °F 23.0 °F 45% 30.36 in 10.0 mi NNE 5.8 mph - N/A   Overcast
1:53 AM 43.0 °F 41.3 °F 24.1 °F 47% 30.35 in 10.0 mi NNE 3.5 mph - 0.00 in   Overcast
2:53 AM 43.0 °F 39.5 °F 24.1 °F 47% 30.35 in 10.0 mi North 5.8 mph - N/A   Overcast
3:53 AM 43.0 °F 38.8 °F 23.0 °F 45% 30.35 in 10.0 mi North 6.9 mph - N/A   Overcast
4:18 AM 41.0 °F 33.5 °F 30.2 °F 65% 30.35 in 10.0 mi North 13.8 mph - 0.00 in Rain Light Rain
4:53 AM 39.0 °F 34.0 °F 30.9 °F 73% 30.34 in 10.0 mi NNW 6.9 mph - 0.00 in   Overcast
5:17 AM 39.2 °F 33.6 °F 30.2 °F 70% 30.34 in 10.0 mi North 8.1 mph - 0.00 in Rain Light Rain
5:53 AM 39.9 °F 37.8 °F 30.0 °F 68% 30.33 in 10.0 mi North 3.5 mph - 0.00 in Rain Light Rain
6:53 AM 39.0 °F 36.8 °F 32.0 °F 76% 30.33 in 10.0 mi NNW 3.5 mph - 0.00 in   Overcast
7:53 AM 39.9 °F 36.7 °F 32.0 °F 73% 30.35 in 10.0 mi NNW 4.6 mph - N/A   Overcast
8:53 AM 41.0 °F 36.4 °F 32.0 °F 70% 30.35 in 10.0 mi North 6.9 mph - N/A   Overcast
9:53 AM 42.1 °F 37.7 °F 34.0 °F 73% 30.38 in 10.0 mi NNW 6.9 mph - N/A   Overcast
10:53 AM 43.0 °F 40.3 °F 33.1 °F 68% 30.37 in 10.0 mi NNW 4.6 mph - N/A   Overcast
11:53 AM 46.0 °F 44.8 °F 33.1 °F 61% 30.35 in 10.0 mi NNW 3.5 mph - N/A   Overcast
12:25 PM 48.2 °F - 33.8 °F 58% 30.32 in 10.0 mi Calm Calm - N/A   Overcast
12:53 PM 48.9 °F - 34.0 °F 56% 30.31 in 10.0 mi Calm Calm - N/A   Overcast
1:53 PM 51.1 °F - 35.1 °F 54% 30.28 in 10.0 mi North 3.5 mph - N/A   Mostly Cloudy
2:53 PM 52.0 °F - 36.0 °F 54% 30.27 in 10.0 mi NE 3.5 mph - N/A   Clear
3:53 PM 52.0 °F - 36.0 °F 54% 30.28 in 10.0 mi Calm Calm - N/A   Clear
4:53 PM 48.9 °F - 33.1 °F 54% 30.28 in 10.0 mi Calm Calm - N/A   Clear
5:53 PM 43.0 °F - 36.0 °F 76% 30.29 in 10.0 mi Calm Calm - N/A   Clear
6:53 PM 39.0 °F 36.8 °F 35.1 °F 86% 30.31 in 10.0 mi SSW 3.5 mph - N/A   Clear
7:53 PM 39.0 °F - 35.1 °F 86% 30.32 in 10.0 mi Calm Calm - N/A   Clear
8:53 PM 36.0 °F - 35.1 °F 97% 30.32 in 10.0 mi Calm Calm - N/A   Clear
9:53 PM 36.0 °F - 34.0 °F 93% 30.33 in 10.0 mi Calm Calm - N/A   Clear
10:53 PM 33.1 °F - 32.0 °F 96% 30.33 in 8.0 mi Calm Calm - N/A   Clear
11:53 PM 32.0 °F - 32.0 °F 100% 30.34 in 5.0 mi Calm Calm - N/A   Clear